Stündliche Wetter Otocec

Heute, 15 April, Donnerstag

Zeit Temperatur Niederschläge Wind Luftdruck Luftfeuchtigkeit
00:00 0°C° 0 mm 0 m/S 735 mmHg 80%
01:00 0°C° 0 mm 0 m/S 735 mmHg 81%
02:00 0°C° 0 mm 0 m/S 735 mmHg 81%
03:00 0°C° 0 mm 0 m/S 734 mmHg 81%
04:00 0°C° 0 mm 1 m/S 734 mmHg 82%
05:00 0°C° 0 mm 0 m/S 735 mmHg 77%
06:00 +2°C° 0 mm 0 m/S 735 mmHg 72%
07:00 +3°C° 0 mm 0 m/S 735 mmHg 67%
08:00 +4°C° 0 mm 0 m/S 735 mmHg 59%
09:00 +7°C° 0 mm 1 m/S 735 mmHg 52%
10:00 +9°C° 0 mm 1 m/S 735 mmHg 44%
11:00 +10°C° 0 mm 1 m/S 734 mmHg 43%
12:00 +10°C° 0 mm 1 m/S 734 mmHg 41%
13:00 +11°C° 0 mm 1 m/S 734 mmHg 40%
14:00 +11°C° 0 mm 1 m/S 733 mmHg 40%
15:00 +11°C° 0 mm 1 m/S 733 mmHg 41%
16:00 +10°C° 0 mm 1 m/S 732 mmHg 41%
17:00 +9°C° 0 mm 1 m/S 732 mmHg 49%
18:00 +7°C° 0 mm 1 m/S 732 mmHg 58%
19:00 +5°C° 0 mm 1 m/S 733 mmHg 66%
20:00 +4°C° 0 mm 1 m/S 733 mmHg 70%
21:00 +4°C° 0 mm 1 m/S 733 mmHg 74%
22:00 +3°C° 0 mm 1 m/S 734 mmHg 77%
23:00 +3°C° 0 mm 1 m/S 734 mmHg 80%

Morgen, 16 April, Freitag

Zeit Temperatur Niederschläge Wind Luftdruck Luftfeuchtigkeit
00:00 +2°C° 0 mm 1 m/S 733 mmHg 82%
01:00 +1°C° 0 mm 0 m/S 733 mmHg 85%
02:00 0°C° 0 mm 0 m/S 733 mmHg 86%
03:00 0°C° 0 mm 0 m/S 733 mmHg 87%
04:00 0°C° 0 mm 0 m/S 733 mmHg 88%
05:00 +1°C° 0 mm 0 m/S 733 mmHg 83%
06:00 +2°C° 0 mm 0 m/S 733 mmHg 78%
07:00 +3°C° 0 mm 0 m/S 733 mmHg 73%
08:00 +6°C° 0 mm 1 m/S 733 mmHg 65%
09:00 +8°C° 0 mm 1 m/S 733 mmHg 56%
10:00 +9°C° 0 mm 1 m/S 733 mmHg 48%
11:00 +10°C° 0 mm 1 m/S 733 mmHg 46%
12:00 +10°C° 0 mm 2 m/S 732 mmHg 44%
13:00 +12°C° 0 mm 2 m/S 732 mmHg 42%
14:00 +12°C° 0 mm 2 m/S 732 mmHg 42%
15:00 +12°C° 0 mm 2 m/S 731 mmHg 43%
16:00 +12°C° 0 mm 2 m/S 731 mmHg 43%
17:00 +9°C° 0 mm 2 m/S 731 mmHg 52%
18:00 +8°C° 0 mm 1 m/S 731 mmHg 61%
19:00 +6°C° 0 mm 1 m/S 731 mmHg 70%
20:00 +5°C° 0 mm 1 m/S 731 mmHg 73%
21:00 +5°C° 0 mm 1 m/S 731 mmHg 75%
22:00 +4°C° 0 mm 1 m/S 732 mmHg 78%
23:00 +4°C° 0 mm 1 m/S 732 mmHg 80%

übermorgen, 17 April, Samstag

Zeit Temperatur Niederschläge Wind Luftdruck Luftfeuchtigkeit
00:00 +3°C° 0 mm 1 m/S 731 mmHg 83%
01:00 +3°C° 0 mm 1 m/S 731 mmHg 85%
02:00 +2°C° 0 mm 1 m/S 731 mmHg 87%
03:00 +2°C° 0 mm 1 m/S 731 mmHg 89%
04:00 +2°C° 0 mm 1 m/S 731 mmHg 90%
05:00 +3°C° 0 mm 1 m/S 731 mmHg 86%
06:00 +4°C° 0 mm 1 m/S 731 mmHg 82%
07:00 +5°C° 0 mm 1 m/S 731 mmHg 78%
08:00 +4°C° 0 mm 2 m/S 731 mmHg 76%
09:00 +4°C° 0 mm 3 m/S 731 mmHg 75%
10:00 +5°C° 0 mm 4 m/S 730 mmHg 73%
11:00 +5°C° 0.1 mm 4 m/S 730 mmHg 71%
12:00 +6°C° 0.1 mm 4 m/S 730 mmHg 70%
13:00 +6°C° 0.1 mm 4 m/S 729 mmHg 68%
14:00 +6°C° 0.1 mm 4 m/S 729 mmHg 68%
15:00 +6°C° 0.1 mm 4 m/S 729 mmHg 68%
16:00 +6°C° 0.1 mm 4 m/S 729 mmHg 69%
17:00 +6°C° 0 mm 4 m/S 729 mmHg 72%
18:00 +5°C° 0 mm 4 m/S 729 mmHg 76%
19:00 +4°C° 0 mm 4 m/S 729 mmHg 80%
20:00 +4°C° 0 mm 3 m/S 729 mmHg 82%
21:00 +4°C° 0 mm 3 m/S 729 mmHg 83%
22:00 +4°C° 0 mm 3 m/S 729 mmHg 85%
23:00 +3°C° 0.3 mm 3 m/S 729 mmHg 88%

18 April, Sonntag

Zeit Temperatur Niederschläge Wind Luftdruck Luftfeuchtigkeit
00:00 +3°C° 0.3 mm 3 m/S 729 mmHg 91%
01:00 +3°C° 0.3 mm 3 m/S 729 mmHg 93%
02:00 +4°C° 0.4 mm 2 m/S 728 mmHg 94%
03:00 +4°C° 0.4 mm 2 m/S 728 mmHg 95%
04:00 +4°C° 0.4 mm 2 m/S 728 mmHg 96%
05:00 +4°C° 0.4 mm 2 m/S 728 mmHg 96%
06:00 +4°C° 0.4 mm 2 m/S 728 mmHg 96%
07:00 +4°C° 0.4 mm 2 m/S 728 mmHg 96%
08:00 +4°C° 0.4 mm 2 m/S 729 mmHg 95%
09:00 +4°C° 0.4 mm 2 m/S 729 mmHg 94%
10:00 +5°C° 0.4 mm 2 m/S 729 mmHg 93%
11:00 +5°C° 0.4 mm 2 m/S 729 mmHg 92%
12:00 +6°C° 0.4 mm 2 m/S 729 mmHg 91%
13:00 +7°C° 0.4 mm 1 m/S 729 mmHg 89%
14:00 +7°C° 0.4 mm 1 m/S 729 mmHg 90%
15:00 +7°C° 0.4 mm 1 m/S 729 mmHg 91%
16:00 +7°C° 0.4 mm 1 m/S 729 mmHg 93%
17:00 +7°C° 0.3 mm 1 m/S 729 mmHg 94%
18:00 +5°C° 0.3 mm 0 m/S 729 mmHg 95%
19:00 +5°C° 0.3 mm 0 m/S 729 mmHg 96%
20:00 +5°C° 0.2 mm 0 m/S 729 mmHg 96%
21:00 +5°C° 0.2 mm 0 m/S 729 mmHg 96%
22:00 +5°C° 0.2 mm 0 m/S 729 mmHg 96%
23:00 +5°C° 0.1 mm 0 m/S 729 mmHg 97%

19 April, Montag

Zeit Temperatur Niederschläge Wind Luftdruck Luftfeuchtigkeit
00:00 +5°C° 0.1 mm 0 m/S 729 mmHg 97%
01:00 +5°C° 0.1 mm 0 m/S 729 mmHg 97%
02:00 +5°C° 0 mm 0 m/S 729 mmHg 97%
03:00 +5°C° 0 mm 0 m/S 728 mmHg 97%
04:00 +4°C° 0 mm 0 m/S 728 mmHg 97%
05:00 +5°C° 0 mm 0 m/S 728 mmHg 95%
06:00 +5°C° 0 mm 0 m/S 728 mmHg 94%
07:00 +5°C° 0 mm 0 m/S 728 mmHg 93%
08:00 +7°C° 0 mm 0 m/S 728 mmHg 87%
09:00 +9°C° 0 mm 1 m/S 728 mmHg 80%
10:00 +10°C° 0 mm 1 m/S 728 mmHg 74%
11:00 +10°C° 0.1 mm 1 m/S 727 mmHg 72%
12:00 +11°C° 0.1 mm 1 m/S 727 mmHg 69%
13:00 +12°C° 0.1 mm 1 m/S 727 mmHg 66%
14:00 +11°C° 0.3 mm 1 m/S 726 mmHg 70%
15:00 +11°C° 0.3 mm 1 m/S 726 mmHg 75%
16:00 +10°C° 0.3 mm 1 m/S 726 mmHg 80%
17:00 +9°C° 0.2 mm 1 m/S 726 mmHg 85%
18:00 +8°C° 0.2 mm 1 m/S 726 mmHg 90%
19:00 +7°C° 0.2 mm 1 m/S 726 mmHg 95%
20:00 +7°C° 0 mm 1 m/S 726 mmHg 95%
21:00 +7°C° 0 mm 1 m/S 726 mmHg 95%
22:00 +6°C° 0 mm 1 m/S 727 mmHg 96%
23:00 +6°C° 0 mm 1 m/S 726 mmHg 96%

20 April, Dienstag

Zeit Temperatur Niederschläge Wind Luftdruck Luftfeuchtigkeit
00:00 +5°C° 0 mm 1 m/S 726 mmHg 96%
01:00 +5°C° 0 mm 1 m/S 725 mmHg 96%
02:00 +5°C° 0 mm 1 m/S 725 mmHg 96%
03:00 +5°C° 0 mm 1 m/S 725 mmHg 95%
04:00 +4°C° 0 mm 0 m/S 725 mmHg 95%
05:00 +5°C° 0.1 mm 0 m/S 725 mmHg 94%
06:00 +6°C° 0.1 mm 0 m/S 726 mmHg 93%
07:00 +6°C° 0.1 mm 0 m/S 726 mmHg 92%
08:00 +8°C° 0 mm 0 m/S 726 mmHg 85%
09:00 +9°C° 0 mm 0 m/S 726 mmHg 78%
10:00 +12°C° 0 mm 1 m/S 726 mmHg 71%
11:00 +13°C° 0.2 mm 1 m/S 725 mmHg 67%
12:00 +14°C° 0.2 mm 1 m/S 725 mmHg 62%
13:00 +15°C° 0.2 mm 2 m/S 725 mmHg 57%
14:00 +14°C° 0.6 mm 2 m/S 725 mmHg 63%
15:00 +14°C° 0.6 mm 2 m/S 725 mmHg 69%
16:00 +13°C° 0.6 mm 2 m/S 725 mmHg 74%
17:00 +12°C° 0.4 mm 2 m/S 725 mmHg 80%
18:00 +11°C° 0.4 mm 1 m/S 725 mmHg 85%
19:00 +9°C° 0.4 mm 1 m/S 725 mmHg 90%
20:00 +9°C° 0.2 mm 1 m/S 726 mmHg 92%
21:00 +8°C° 0.2 mm 0 m/S 726 mmHg 93%
22:00 +7°C° 0.2 mm 0 m/S 727 mmHg 94%
23:00 +7°C° 0.1 mm 0 m/S 727 mmHg 95%
Mehr zeigen

Wir brauchen deine Erlaubnis

Meteoprog und unser Service Anbieter werden persönliche Daten aufbewahren, so wie Cookies, Geräte Bezeichnung oder ähnliche Technologien von deinem Gerät und Prozess, so wie Persönliche Daten Inhalte und Werbungen, genauso wie social Media und den Verkehr zu analysieren.

  • Aufbewahrung und/oder Zugang zu deiner Geräte Informationen.

    Cookies, Geräte Bezeichnung oder andere Informationen, können aufbewahrt oder Zugang zu deinem Gerät erhalten, für den Grund, der oben angegeben wird.

  • Personalisierte Werbung und Inhalte, Messungen, Einblick in das Publikum und Produkt Entwicklung.

    Werbungen und Inhalte können personalisiert werden, basierend auf ein Profil. Mehr Daten können besser personalisierte Werbungen und Inhalte hinzufügen. Werbung und Inhalte können gezeigt und gemessen werden. Einblicke über das Publikum, welche die Werbung gesehen haben und den Inhalt, können abgeleitet werden. So wie Daten können genutzt werden, um es zu verbessern oder die Benutzer Erfahrung zu verbessern das System und die Software.

Wenn du “Ich stimme zu” klickst, erlaubst du uns, die Cookies zu benutzen die Geräte Bezeichnung, den Web oder ähnliche Technologien zu benutzen. Deine Settings, können in deinem Gerät bei deinem Browser geändert werden.

Für den bestimmten Zweck, berechtigten Interessen beruhen darauf, mehr als auf den Inhalt. Du kannst mehr darüber in unseren Privaten und Cookie Politik lesen.